Location: ?????????
(53.2086°N, 54.0693°E)
Time: 18:00:41
(UTC+00:00)

Radarsat Rocket - Pass Details

Date: 08 December 2019
Orbit: 933 x 1492 km, 100.6° (Epoch: 21 January)

Event Time Altitude Azimuth Distance (km) Brightness Sun altitude
Rises 12:39:14 0° 153° (SSE) 3,780 7.2 -4.8°
Reaches altitude 10° 12:41:47 10° 152° (SSE) 2,775 6.4 -5.1°
Maximum altitude 12:47:53 76° 68° (ENE) 985 4.0 -5.9°
Drops below altitude 10° 12:53:43 10° 343° (NNW) 2,656 6.2 -6.7°
Sets 12:56:07 0° 342° (NNW) 3,608 6.9 -7.0°
